Regional Weather Roundup
Issued by NWS

Home | Current Version | Previous Version | Text Only | Print | Product List | Glossary On
Versions: 1 2 3 4 5 6 7 8 9 10 11 12 13 14 15 16 17 18 19 20 21 22 23 24 25 26 27 28 29 30 31 32 33 34 35 36 37 38 39 40 41 42 43 44 45 46 47 48 49 50
000
ASUS44 KBMX 201610
RWRAL

ALABAMA REGIONAL WEATHER ROUNDUP
NATIONAL WEATHER SERVICE BIRMINGHAM AL
1000 AM CST TUE FEB 20 2018

NOTE: "FAIR" INDICATES FEW OR NO CLOUDS BELOW 12,000 FEET
WITH NO SIGNIFICANT WEATHER AND/OR OBSTRUCTIONS TO VISIBILITY.

THE REMARK "TC" DENOTES TEMPERATURE IN DEGREES CELSIUS.

ALZ001>011-014-016>018-020-201700-
NORTH ALABAMA

CITY           SKY/WX    TMP DP  RH WIND       PRES   REMARKS
MUSCLE SHOALS  CLOUDY    68  60  75 S13G22    30.27F
HUNTSVILLE     FAIR      71  62  73 S16       30.28F
DECATUR        PTSUNNY   71  59  65 S15       30.28F
HALEYVILLE     CLOUDY    66  63  90 S12       30.30F
GADSDEN        FAIR      72  64  76 S8        30.33S
$$

ALZ012-013-022-023-030>036-040>044-201700-
WEST CENTRAL ALABAMA

CITY           SKY/WX    TMP DP  RH WIND       PRES   REMARKS
TUSCALOOSA     FAIR      73  63  70 SW6       30.27S
DEMOPOLIS        N/A     74  61  62 SE9G17    30.26S
$$

ALZ015-024>026-033>036-041>044-201700-
CENTRAL ALABAMA

CITY           SKY/WX    TMP DP  RH WIND       PRES   REMARKS
BIRMINGHAM     FAIR      73  60  63 S9        30.32S
MONTGOMERY     PTSUNNY   75  65  70 SE13      30.31S
SHELBY CO ARPT FAIR      73  63  70 SE8       30.30S
MAXWELL AFB    PTSUNNY   74  64  70 SE14      30.30S
GREENVILLE     NOT AVBL
SELMA          FAIR      75  63  64 SE10G17   30.28F
PRATTVILLE     PTSUNNY   73  64  73 SE8       30.31S
BESSEMER       FAIR      72  62  71 VRB7      30.30F
TALLADEGA      PTSUNNY   71  64  79 S14G20    30.34S
PELL CITY      MOSUNNY   75  66  73 S9        30.32S
MARION         FAIR      71  62  74 SE9       30.27S
SYLACAUGA      FAIR      73  66  78 S12G20    30.33S
$$

ALZ019-021-028-029-037-038-045>048-201700-
EAST CENTRAL ALABAMA

CITY           SKY/WX    TMP DP  RH WIND       PRES   REMARKS
ANNISTON       PTSUNNY   69  63  81 SE8       30.34S
ALEXANDER CITY CLOUDY    69  67  93 S10       30.34S
AUBURN         CLOUDY    66  64  93 SE9       30.37S
$$

ALZ051>064-201700-
SOUTHWEST ALABAMA

CITY           SKY/WX    TMP DP  RH WIND       PRES   REMARKS
MOBILE         PTSUNNY   78  66  66 SE20G26   30.26R
BROOKLEY FIELD FAIR      75  66  73 SE12      30.26R
EVERGREEN      FAIR      78  63  59 SE13      30.29R
$$

ALZ049-050-065>069-201700-
SOUTHEAST ALABAMA

CITY           SKY/WX    TMP DP  RH WIND       PRES   REMARKS
DOTHAN           N/A     73  65  75 SE13      30.36S
OZARK          CLOUDY    72  66  83 SE10G20   30.32S
TROY           CLOUDY    72  65  78 SE15G21   30.33R
EUFAULA        CLOUDY    71  66  84 SE8       30.34S
$$



USA.gov is the U.S. government's official web portal to all federal, state and local government web resources and services.